Flag for Taiwan Weather past 2 weeks in Taichung, Taiwan

Now
73 °F

Passing clouds.


Feels Like: 72 °F
Forecast: 69 / 87 °F
Wind: 2 mph from North

Location: Chiang Kai Shek


UV Index: 7 (High)

Visibility: 4 mi


Pressure: 29.92 "Hg

Humidity: 89%

Dew point: 70 °F

Location of TaichungLocation

Historic Weather in Taichung

°F

Taichung temperature yesterday

Maximum temperature yesterday: 79 °F (at 2:00 PM)
Minimum temperature yesterday: 68 °F (at 3:00 AM)
Average temperature yesterday: 73 °F

Past Weeks' High & Low Weather Summary

 TemperatureHumidityPressure
High86 °F (Apr 12, 1:00 PM)94% (Apr 7, 6:30 AM)30.09 "Hg (Apr 7, 6:30 AM)
Low63 °F (Apr 11, 4:00 AM)42% (Apr 15, 4:00 PM)29.80 "Hg (Apr 12, 2:30 PM)
Average73 °F76%29.94 "Hg
* Reported Apr 6 11:00 PM — Apr 21 11:00 PM, Taichung, Weather by CustomWeather, © 2014

Note: Actual official high and low records may vary slightly from our data, if they occured in-between our weather recording intervals... More about our weather records

Advertising

Historic Weather Conditions — Data for Previous 24 hours

 ConditionsComfort  
Time TempWeatherWind HumidityBarometerVisibility
11:00 PM
Apr 21
73 °FPassing clouds.2 mph89%29.92 "Hg4 mi
10:30 PM73 °FPassing clouds.1 mph83%29.92 "Hg4 mi
10:00 PM73 °FPassing clouds.5 mph89%29.92 "Hg4 mi
9:30 PM73 °FPassing clouds.9 mph83%29.92 "Hg4 mi
9:00 PM73 °FPassing clouds.12 mph83%29.92 "Hg4 mi
8:30 PM73 °FPassing clouds.10 mph83%29.92 "Hg4 mi
8:00 PM73 °FPassing clouds.10 mph83%29.89 "Hg6 mi
7:30 PM73 °FPassing clouds.9 mph83%29.89 "Hg6 mi
7:00 PM73 °FPassing clouds.14 mph83%29.89 "Hg6 mi
6:30 PM73 °FPassing clouds.12 mph83%29.89 "Hg5 mi
6:00 PM73 °FPartly sunny.12 mph83%29.86 "HgN/A
5:30 PM75 °FPartly sunny.9 mph78%29.86 "HgN/A
5:00 PM75 °FPartly sunny.10 mph78%29.86 "HgN/A
4:30 PM77 °FPartly sunny.8 mph74%29.83 "HgN/A
4:00 PM77 °FBroken clouds.7 mph74%29.83 "HgN/A
3:30 PM79 °FBroken clouds.7 mph70%29.83 "HgN/A
3:00 PM77 °FPartly sunny.12 mph69%29.83 "HgN/A
2:30 PM77 °FScattered clouds.15 mph74%29.86 "HgN/A
2:00 PM79 °FScattered clouds.16 mph65%29.86 "HgN/A
1:30 PM77 °FPassing clouds.21 mph69%29.89 "HgN/A
1:00 PM77 °FPassing clouds.21 mph69%29.89 "HgN/A
12:30 PM77 °FBroken clouds.20 mph69%29.89 "HgN/A
12:00 PM77 °FBroken clouds.17 mph69%29.92 "HgN/A
11:30 AM77 °FScattered clouds.17 mph69%29.92 "HgN/A
11:00 AM75 °FScattered clouds.15 mph69%29.92 "HgN/A
10:30 AM77 °FBroken clouds.14 mph69%29.95 "HgN/A
10:00 AM75 °FPartly sunny.14 mph69%29.95 "HgN/A
9:30 AM75 °FPartly sunny.13 mph69%29.95 "HgN/A
9:00 AM73 °FPartly sunny.9 mph74%29.95 "HgN/A
8:30 AM72 °FPartly sunny.14 mph78%29.95 "HgN/A
8:00 AM70 °FPartly sunny.15 mph83%29.95 "HgN/A
7:30 AM70 °FPartly sunny.15 mph83%29.95 "HgN/A
7:00 AM70 °FPartly sunny.14 mph83%29.95 "HgN/A
6:30 AM70 °FPartly sunny.13 mph83%29.95 "HgN/A
6:00 AM70 °FPartly sunny.14 mph83%29.95 "HgN/A
5:00 AM70 °FPassing clouds.15 mph83%29.92 "HgN/A
4:30 AM70 °FPassing clouds.15 mph83%29.92 "HgN/A
4:00 AM70 °FPassing clouds.15 mph83%29.92 "HgN/A
3:30 AM70 °FPassing clouds.15 mph83%29.92 "HgN/A
3:00 AM68 °FPassing clouds.16 mph88%29.92 "HgN/A
2:30 AM70 °FPassing clouds.15 mph83%29.92 "HgN/A
2:00 AM70 °FPassing clouds.14 mph83%29.92 "HgN/A
1:30 AM70 °FPassing clouds.13 mph83%29.92 "HgN/A
1:00 AM70 °FPartly cloudy.13 mph83%29.92 "HgN/A
12:30 AM70 °FPartly cloudy.12 mph83%29.92 "HgN/A
12:00 AM70 °FPartly cloudy.10 mph83%29.92 "HgN/A
Weather by CustomWeather, © 2014

See weather overview